Weather History for Puerto Barrios, Guatemala

Change the Weather History Date:

Thursday, October 25, 2012

  Actual Average Record
Temperature  
Mean Temperature 78 °F -  
Max Temperature 87 °F 82 °F 91 °F (1997)
Min Temperature 69 °F 70 °F 64 °F (2013)
Cooling Degree Days 13    
Growing Degree Days 28 (Base 50)    
Moisture  
Dew Point 74 °F    
Average Humidity 88    
Maximum Humidity 100    
Minimum Humidity 70    
Precipitation  
Precipitation 0.00 in - - ()
Sea Level Pressure  
Sea Level Pressure 29.83 in    
Wind  
Wind Speed 1 mph ()    
Max Wind Speed 7 mph    
Max Gust Speed -    
Visibility 6.2 miles    
Events      
Averages and records for this station are not official NWS values.
T = Trace of Precipitation, MM = Missing Value Source: Averaged Metar Reports

Daily Weather History Graph

Daily Weather History Graph

Search for Another Location

Airport:

Trip Planner

Search our weather history database for the weather conditions in past years. The results will help you decide how hot, cold, wet, or windy it might be!

Date:

Astronomy

Oct. 25, 2012 Rise Set
Actual Time 5:48 AM CST 5:27 PM CST
Civil Twilight 5:26 AM CST 5:49 PM CST
Nautical Twilight 5:01 AM CST 6:14 PM CST
Astronomical Twilight 4:36 AM CST 6:40 PM CST
Moon 2:45 PM CST (10/25) 2:18 AM CST (10/25)
Length of Visible Light 12h 22m
Length of Day
11h 38m
Waxing Gibbous, 85% of the Moon is Illuminated
Oct 25
Waxing Gibbous
Oct 29
Full
Nov 6
Last Quarter
Nov 13
New
Nov 20
First Quarter

Hourly Weather History & Observations

Time (CST) Temp. Heat Index Dew Point Humidity Pressure Visibility Wind Dir Wind Speed Gust Speed Precip Events Conditions
12:00 AM 73.4 °F - 71.6 °F 94% 29.86 in 6.2 mi Calm Calm - N/A   Scattered Clouds
1:00 AM 71.6 °F - 71.6 °F 100% 29.89 in - Calm Calm - N/A   Clear
3:00 AM 71.6 °F - 71.6 °F 100% 29.80 in - Calm Calm - N/A   Clear
4:00 AM - - - N/A% - - North - - N/A   Unknown
5:00 AM - - - N/A% - - North - - N/A   Unknown
6:00 AM 70 °F - 69 °F 96% 29.86 in 25 mi Calm Calm - -   Scattered Clouds
6:00 AM 69.8 °F - 69.8 °F 100% 29.86 in 6.2 mi Calm Calm - N/A   Partly Cloudy
7:00 AM 71.6 °F - 69.8 °F 94% 29.86 in 6.2 mi Calm Calm - N/A   Scattered Clouds
8:00 AM 77.0 °F - 73.4 °F 89% 29.86 in 6.2 mi Calm Calm - N/A   Mostly Cloudy
9:00 AM 78.8 °F - 73.4 °F 83% 29.89 in 6.2 mi West 4.6 mph - N/A   Mostly Cloudy
10:00 AM 82.4 °F 89.5 °F 75.2 °F 79% 29.89 in 6.2 mi Calm Calm - N/A   Partly Cloudy
11:00 AM 84.2 °F 94.1 °F 77.0 °F 79% 29.86 in 6.2 mi West 6.9 mph - N/A   Partly Cloudy
12:00 PM 86.0 °F 96.9 °F 77.0 °F 74% 29.83 in 6.2 mi West 4.6 mph - N/A   Partly Cloudy
1:00 PM 86.0 °F 96.9 °F 77.0 °F 74% 29.80 in 6.2 mi North 4.6 mph - N/A   Partly Cloudy
2:00 PM 86.0 °F 96.9 °F 77.0 °F 74% 29.77 in 6.2 mi North 6.9 mph - N/A   Partly Cloudy
3:00 PM 87.8 °F 99.7 °F 77.0 °F 70% 29.77 in 6.2 mi North 4.6 mph - N/A   Partly Cloudy
4:00 PM 86.0 °F 96.9 °F 77.0 °F 74% 29.77 in 6.2 mi Calm Calm - N/A   Partly Cloudy
5:00 PM 82.4 °F 90.9 °F 77.0 °F 84% 29.77 in 6.2 mi Calm Calm - N/A   Partly Cloudy
6:00 PM 78.8 °F - 77.0 °F 94% 29.77 in 6.2 mi Calm Calm - N/A   Partly Cloudy
7:00 PM 77.0 °F - 75.2 °F 94% 29.80 in - Calm Calm - N/A   Clear
8:00 PM 77.0 °F - 75.2 °F 94% 29.83 in - Calm Calm - N/A   Clear
9:00 PM 75.2 °F - 73.4 °F 94% 29.86 in 6.2 mi Calm Calm - N/A   Partly Cloudy
10:00 PM 75.2 °F - 73.4 °F 94% 29.86 in 6.2 mi Calm Calm - N/A   Scattered Clouds
11:00 PM 75.2 °F - 73.4 °F 94% 29.86 in - ESE 4.6 mph - N/A   Clear